Weather Roundup
Issued by NWS

Home | Current Version | Previous Version | Text Only | Print | Product List | Glossary On
Versions: 1 2 3 4 5 6 7 8 9 10 11 12 13 14 15 16 17 18 19 20 21 22 23 24 25 26 27 28 29 30 31 32 33 34 35 36 37 38 39 40 41 42 43 44 45 46 47 48 49 50
000
NZUS93 KARX 301110
HRRWXR

CURRENT HOURLY OBSERVATIONS ACROSS
MUCH OF THE UPPER MISSISSIPPI VALLEY
NATIONAL WEATHER SERVICE LA CROSSE WI
600 AM CDT WED JUL 30 2014


...SOUTHEAST MINNESOTA...


CITY           SKY/WX    TMP DP  RH WIND       PRES   REMARKS
ROCHESTER      CLEAR     56  54  93 W7        30.09R
ROCHESTER/MAYO FAIR      58  55  89 W6        30.08R
WINONA         CLEAR     57  55  94 CALM      30.07R
AUSTIN         CLEAR     57  54  88 NW6       30.08S
ALBERT LEA     CLEAR     55  54  94 CALM      30.09S
DODGE CENTER   CLEAR     59  55  88 NW7       30.08S
PRESTON        CLEAR     56  56 100 NW7       30.08R
OWATONNA       CLEAR     52  50  93 CALM      30.09S
FARIBAULT      CLEAR     55  52  88 CALM      30.09R
$$

...ELSEWHERE IN MINNESOTA...


CITY           SKY/WX    TMP DP  RH WIND       PRES   REMARKS
MINNEAPOLIS    PTCLDY    60  56  86 CALM      30.08R
INTNL FALLS    PTCLDY    49  48  97 CALM      30.05S
DULUTH         MOCLDY    50  47  89 CALM      30.08S FOG
RED WING       CLOUDY    55  54  94 CALM      30.07R FOG
REDWOOD FALLS  CLEAR     55  53  93 NW7       30.11S
MANKATO        CLEAR     55  50  82 W3        30.10R
WORTHINGTON    CLEAR     54  48  82 W5        30.15R
FAIRMONT       CLEAR     55  50  82 NW6       30.11S
$$

...SOUTHWEST WISCONSIN...


CITY           SKY/WX    TMP DP  RH WIND       PRES   REMARKS
LA CROSSE      CLEAR     58  56  93 NW5       30.06R
PRAIRIE DU CHI CLEAR     57  55  92 CALM      30.06R
BOSCOBEL       FOG       58  57  97 CALM      30.06R VSB 1/4
LONE ROCK      CLEAR     58  54  86 W6        30.05R
PLATTEVILLE    CLEAR     57  56  95 W3        30.06S
FORT MC COY    FOG       54  53  97 CALM      30.07S VSB 1/4
CAMP DOUGLAS   CLEAR     54  54 100 W6        30.05S FOG
VIROQUA        CLOUDY    56  56 100 CALM      30.07R VSB<1/4
WIS DELLS      CLEAR     54  52  94 CALM      30.04S
$$

...ELSEWHERE IN WISCONSIN...


CITY           SKY/WX    TMP DP  RH WIND       PRES   REMARKS
MILWAUKEE      PTCLDY    61  56  83 NW7       30.02R
MADISON        PTCLDY    58  55  90 NW3       30.03R
GREEN BAY      CLEAR     56  55  97 NW3       30.03R
EAU CLAIRE     CLEAR     52  52 100 CALM      30.07R
BLACK RVR FLS  FOG       48  48 100 CALM      30.06R VSB<1/4
MEDFORD        FOG       50  49  99 CALM      30.07S VSB<1/4
WAUSAU         CLOUDY    52  51  97 NW6       30.05S FOG
WIS RAPIDS     CLEAR     54  53  97 N5        30.06R
MARSHFIELD     CLEAR     53  51  93 N5        30.06R FOG
RICE LAKE      FOG       55  54  95 N3        30.10R VSB<1/4
$$

...NORTHEAST IOWA...


CITY           SKY/WX    TMP DP  RH WIND       PRES   REMARKS
WATERLOO       CLEAR     56  54  93 NW5       30.06S
DUBUQUE        PTCLDY    57  55  93 CALM      30.06R
DECORAH        CLEAR     57  57 100 CALM      30.06S
MASON CITY     CLEAR     54  52  93 W6        30.10S
CHARLES CITY   CLEAR     54  52  94 W6        30.08S
OELWEIN        PTCLDY    55  54  94 W5        30.08R
$$

...ELSEWHERE IN IOWA...


CITY           SKY/WX    TMP DP  RH WIND       PRES   REMARKS
DES MOINES     PTCLDY    59  54  83 NW3       30.10R
IOWA CITY      CLEAR     58  56  93 SW3       30.08R
FORT DODGE     CLEAR     55  52  88 NW5       30.11R
MARSHALLTOWN   CLEAR     54  53  97 W7        30.08R
CEDAR RAPIDS   CLEAR     54  51  90 W3        30.06S
$$

...NORTHERN ILLINOIS...


CITY           SKY/WX    TMP DP  RH WIND       PRES   REMARKS
CHICAGO-OHARE  MOCLDY    62  54  74 W6        30.02R
DUPAGE         MOCLDY    60  55  83 W5        30.03R
CHICAGO-MIDWAY MOCLDY    63  57  81 CALM      30.02R
MOLINE         CLEAR     56  53  90 CALM      30.05R
ROCKFORD       MOCLDY    59  55  87 CALM      30.06R
STERLING       MOCLDY    59  55  88 W3        30.05S
PEORIA         CLEAR     61  56  83 CALM      30.05S
$$

NOTE: "FAIR" INDICATES FEW OR NO CLOUDS BELOW 12,000 FEET WITH NO
SIGNIFICANT WEATHER AND/OR OBSTRUCTIONS TO VISIBILITY. WIND
SPEEDS ARE IN MILES-PER-HOUR.



USA.gov is the U.S. government's official web portal to all federal, state and local government web resources and services.